Regional Weather Roundup
Issued by NWS Albany, NY

Home | Current Version | Previous Version | Graphics & Text | Print | Product List | Glossary Off
Versions: 1 2 3 4 5 6 7 8 9 10 11 12 13 14 15 16 17 18 19 20 21 22 23 24 25 26 27 28 29 30 31 32 33 34 35 36 37 38 39 40 41 42 43 44 45 46 47 48 49 50

000
ASUS41 KALY 040410
RWRALY

NEW YORK STATE HOURLY WEATHER ROUNDUP
NATIONAL WEATHER SERVICE ALBANY NY
1100 PM EST TUE MAR 03 2015

NOTE: "FAIR" INDICATES FEW OR NO CLOUDS BELOW 12,000 FEET WITH NO
SIGNIFICANT WEATHER AND/OR NO OBSTRUCTIONS TO VISIBILITY.

NYZ032-033-038>043-046>054-057>066-NYZ062>081-040500-
EAST


CITY           SKY/WX    TMP DP  RH WIND       PRES   REMARKS
ALBANY         CLOUDY    28  22  78 S20G30    29.72F WCI  15
GLENS FALLS    CLOUDY    26  22  84 SW10G22   29.70F FOG     WCI  16
POUGHKEEPSIE   CLOUDY    34  30  85 VRB3      29.85F
NEWBURGH       FRZ RAIN  34  30  86 W12       29.84  WCI  25
MONTGOMERY     CLOUDY    33  29  85 CALM      29.82F
WHITE PLAINS   LGT RAIN  33  32  96 S7        29.86F FOG     WCI  27
ISLIP          RAIN      34  32  92 SW5       29.88F FOG     WCI  30
NEW YORK CITY  LGT RAIN  36  32  85 SW12G21   29.90F WCI  28
CENTRAL PARK   MIX PCPN  36  32  85 VRB7G24   29.91F WCI  30
$$

NYZ005>009-017-018-044>046-055-056-040500-
CENTRAL


CITY           SKY/WX    TMP DP  RH WIND       PRES   REMARKS
FULTON         CLOUDY    33  24  69 S12       29.61S WCI  24
SYRACUSE       CLOUDY    31  27  85 S14G24    29.62S WCI  21
ROME           CLOUDY    27  22  81 SE7       29.68F WCI  19
ELMIRA         CLOUDY    32  27  81 W13       29.67S WCI  22
BINGHAMTON     CLOUDY    26  23  88 SW10      29.66F WCI  16
MONTICELLO     CLOUDY    21  19  93 CALM      29.78F
$$

NYZ026>034-041>043-040500-
NORTH


CITY           SKY/WX    TMP DP  RH WIND       PRES   REMARKS
WATERTOWN      FRZ RAIN  33  28  81 S21G29    29.56R WCI  21
FORT DRUM      NOT AVBL
MASSENA        LGT SNOW  24  24 100 CALM      29.53F FOG
SARANAC LAKE   LGT SNOW  23  21  92 SW14G26   29.49R FOG     WCI  11
PLATTSBURGH    CLOUDY    25  19  78 S14       29.59F WCI  13
$$

NYZ001>004-010>016-019>021-040500-
WEST


CITY           SKY/WX    TMP DP  RH WIND       PRES   REMARKS
NIAGARA FALLS  CLOUDY    35  31  85 W20G26    29.65R WCI  24
BUFFALO        CLOUDY    36  32  85 W24G33    29.64R WCI  24
DUNKIRK        CLOUDY    36  34  92 SW18G32   29.69R WCI  26
JAMESTOWN      CLOUDY    36  34  93 W21G28    29.67R WCI  24
WELLSVILLE     CLOUDY    37  34  89 SW14G22   29.63R WCI  28
ROCHESTER      CLOUDY    39  34  82 W22G31    29.61R WCI  29
PENN YAN       CLOUDY    34  27  75 S15G24    29.62R WCI  24
$$

             KEY
       WCI = WIND CHILL INDEX
       VSB = VISIBILITY
       HX  = HEAT INDEX
$$


USA.gov is the U.S. government's official web portal to all federal, state and local government web resources and services.